Mount Erie, IL

11:14 PM CST on February 11, 2016 (GMT -0600)
Fairfield Municipal

Weather History for KFWC - March, 2013

Change the Weather History Date:

Friday, March 1, 2013

  Actual Average (KMVN) Record (KMVN)
Temperature  
Mean Temperature 32 °F -  
Max Temperature 35 °F 46 °F 73 °F (2006)
Min Temperature 30 °F 29 °F 17 °F (2015)
Degree Days  
Heating Degree Days 32    
Moisture  
Dew Point 30 °F    
Average Humidity 88    
Maximum Humidity 93    
Minimum Humidity 81    
Precipitation  
Precipitation 0.02 in - - ()
Sea Level Pressure  
Sea Level Pressure 30.08 in    
Wind  
Wind Speed 4 mph (NNW)    
Max Wind Speed 10 mph    
Max Gust Speed 16 mph    
Visibility 4 miles    
Events Rain , Snow    
Averages and records for this station are not official NWS values.
T = Trace of Precipitation, MM = Missing Value Source: NWS Daily Summary

Daily Weather History Graph

Daily Weather History Graph

Search for Another Location

Airport or City:

Trip Planner

Search our weather history database for the weather conditions in past years. The results will help you decide how hot, cold, wet, or windy it might be!

Date:

Astronomy

Mar. 01, 2013 Rise Set
Actual Time 6:25 AM CST 5:47 PM CST
Civil Twilight 5:58 AM CST 6:13 PM CST
Nautical Twilight 5:28 AM CST 6:44 PM CST
Astronomical Twilight 4:57 AM CST 7:14 PM CST
Moon 10:15 PM CST (3/1) 8:15 AM CST (3/1)
Length of Visible Light 12h 14m
Length of Day
11h 21m
Waning Gibbous, 83% of the Moon is Illuminated
Mar 1
Waning Gibbous
Mar 4
Last Quarter
Mar 11
New
Mar 19
First Quarter
Mar 27
Full

Hourly Weather History & Observations

Time (CST) Temp. Windchill Dew Point Humidity Pressure Visibility Wind Dir Wind Speed Gust Speed Precip Events Conditions
12:15 AM 33.8 °F 30.8 °F 30.2 °F 87% 30.04 in 1.8 mi WNW 3.5 mph - N/A   Overcast
12:35 AM 33.8 °F 29.6 °F 30.2 °F 87% 30.05 in 2.5 mi WNW 4.6 mph - N/A   Overcast
12:55 AM 33.8 °F 29.6 °F 30.2 °F 87% 30.05 in 2.5 mi WNW 4.6 mph - N/A   Overcast
2:55 AM 33.8 °F - 30.2 °F 87% 30.03 in 1.8 mi Calm Calm - N/A Snow Light Snow
3:15 AM 33.8 °F - 30.2 °F 87% 30.03 in 1.8 mi Calm Calm - N/A Snow Light Snow
3:35 AM 33.8 °F - 30.2 °F 87% 30.03 in 2.0 mi Calm Calm - N/A Snow Light Snow
3:55 AM 33.8 °F - 30.2 °F 87% 30.03 in 1.5 mi Calm Calm - N/A Snow Light Snow
4:15 AM 33.8 °F - 30.2 °F 87% 30.03 in 1.2 mi Calm Calm - N/A Snow Light Snow
4:35 AM 33.8 °F 30.8 °F 30.2 °F 87% 30.03 in 1.2 mi WNW 3.5 mph - N/A Snow Light Snow
4:55 AM 33.8 °F - 30.2 °F 87% 30.04 in 1.0 mi Calm Calm - N/A Snow Light Snow
5:15 AM 32.0 °F - 30.2 °F 93% 30.04 in 1.0 mi Calm Calm - N/A Snow Light Snow
5:35 AM 32.0 °F - 30.2 °F 93% 30.04 in 1.0 mi Calm Calm - N/A Snow Light Snow
5:55 AM 32.0 °F - 30.2 °F 93% 30.04 in 1.0 mi Calm Calm - N/A Snow Light Snow
6:15 AM 32.0 °F - 30.2 °F 93% 30.04 in 0.8 mi Calm Calm - N/A Snow Light Snow
6:35 AM 32.0 °F 26.4 °F 30.2 °F 93% 30.05 in 1.8 mi North 5.8 mph - N/A Snow Light Snow
6:55 AM 32.0 °F 28.7 °F 30.2 °F 93% 30.05 in 1.8 mi North 3.5 mph - N/A Snow Light Snow
7:15 AM 32.0 °F 28.7 °F 30.2 °F 93% 30.06 in 2.0 mi North 3.5 mph - N/A Snow Light Snow
7:35 AM 32.0 °F 27.5 °F 30.2 °F 93% 30.07 in 2.5 mi North 4.6 mph - N/A Snow Light Snow
7:55 AM 32.0 °F 28.7 °F 30.2 °F 93% 30.07 in 1.8 mi North 3.5 mph - N/A Snow Light Snow
8:15 AM 32.0 °F - 30.2 °F 93% 30.07 in 1.8 mi Calm Calm - N/A Snow Light Snow
8:35 AM 32.0 °F 27.5 °F 30.2 °F 93% 30.08 in 2.0 mi NNE 4.6 mph - 0.01 in Snow Light Snow
8:55 AM 32.0 °F 28.7 °F 30.2 °F 93% 30.08 in 2.5 mi North 3.5 mph - 0.01 in Snow Light Snow
9:15 AM 33.8 °F 29.6 °F 30.2 °F 87% 30.08 in 2.5 mi North 4.6 mph - N/A Snow Light Snow
9:35 AM 33.8 °F 29.6 °F 30.2 °F 87% 30.08 in 2.0 mi NNE 4.6 mph - N/A Snow Light Snow
9:55 AM 33.8 °F 28.6 °F 30.2 °F 87% 30.09 in 4.0 mi NNE 5.8 mph - N/A Rain Light Rain
10:15 AM 33.8 °F 28.6 °F 30.2 °F 87% 30.09 in 3.0 mi North 5.8 mph - N/A Snow Light Snow
10:35 AM 33.8 °F 27.7 °F 30.2 °F 87% 30.09 in 3.0 mi NNE 6.9 mph - N/A Snow Light Snow
10:55 AM 33.8 °F 29.6 °F 32.0 °F 93% 30.08 in 5.0 mi North 4.6 mph - N/A   Overcast
11:15 AM 35.6 °F 30.7 °F 32.0 °F 87% 30.09 in 5.0 mi North 5.8 mph - N/A Snow Light Snow
11:35 AM 35.6 °F 29.2 °F 33.8 °F 93% 30.09 in 7.0 mi NNW 8.1 mph - N/A Snow Light Snow
11:55 AM 35.6 °F 29.2 °F 32.0 °F 87% 30.09 in 7.0 mi North 8.1 mph - N/A   Overcast
12:15 PM 35.6 °F 29.9 °F 32.0 °F 87% 30.08 in 7.0 mi North 6.9 mph - N/A Snow Light Snow
12:35 PM 35.6 °F 29.2 °F 30.2 °F 81% 30.08 in 5.0 mi North 8.1 mph - N/A Rain Light Rain
12:55 PM 35.6 °F 29.9 °F 32.0 °F 87% 30.07 in 5.0 mi North 6.9 mph - N/A Rain Light Rain
1:15 PM 33.8 °F 27.7 °F 30.2 °F 87% 30.07 in 4.0 mi North 6.9 mph - N/A Snow Light Snow
1:35 PM 35.6 °F 31.7 °F 30.2 °F 81% 30.07 in 4.0 mi NNW 4.6 mph - N/A Rain Light Rain
1:55 PM 35.6 °F 31.7 °F 30.2 °F 81% 30.06 in 3.0 mi NW 4.6 mph - N/A Snow Light Snow
2:15 PM 35.6 °F 29.9 °F 30.2 °F 81% 30.06 in 7.0 mi North 6.9 mph - N/A Rain Light Rain
2:35 PM 35.6 °F 30.7 °F 30.2 °F 81% 30.06 in 7.0 mi NW 5.8 mph - N/A Snow Light Snow
2:55 PM 35.6 °F 29.2 °F 30.2 °F 81% 30.06 in 4.0 mi NNW 8.1 mph - N/A Snow Light Snow
3:15 PM 35.6 °F 29.9 °F 30.2 °F 81% 30.06 in 7.0 mi NNW 6.9 mph - N/A   Overcast
3:35 PM 35.6 °F 30.7 °F 30.2 °F 81% 30.07 in 7.0 mi NNW 5.8 mph - N/A Snow Light Snow
3:55 PM 35.6 °F 28.0 °F 30.2 °F 81% 30.07 in 7.0 mi NNW 10.4 mph - N/A Snow Light Snow
4:15 PM 35.6 °F 31.7 °F 30.2 °F 81% 30.07 in 10.0 mi NNW 4.6 mph - N/A   Overcast
4:35 PM 33.8 °F 27.0 °F 30.2 °F 87% 30.08 in 7.0 mi NW 8.1 mph - N/A Snow Light Snow
4:55 PM 33.8 °F 27.7 °F 30.2 °F 87% 30.08 in 5.0 mi NNW 6.9 mph - N/A Snow Light Snow
5:15 PM 33.8 °F 28.6 °F 28.4 °F 81% 30.09 in 7.0 mi NNW 5.8 mph - N/A Rain Light Rain
5:35 PM 32.0 °F 26.4 °F 28.4 °F 87% 30.09 in 10.0 mi NNW 5.8 mph - N/A Snow Light Snow
5:55 PM 32.0 °F 25.6 °F 28.4 °F 87% 30.10 in 10.0 mi NNW 6.9 mph - N/A   Overcast
6:15 PM 32.0 °F 27.5 °F 30.2 °F 93% 30.10 in 4.0 mi NNW 4.6 mph - N/A Snow Light Snow
6:35 PM 32.0 °F 26.4 °F 30.2 °F 93% 30.10 in 2.0 mi NNW 5.8 mph - N/A   Overcast
6:55 PM 32.0 °F 27.5 °F 30.2 °F 93% 30.11 in 2.5 mi NW 4.6 mph - N/A Snow Light Snow
7:15 PM 32.0 °F 25.6 °F 28.4 °F 87% 30.11 in 4.0 mi NNW 6.9 mph - N/A   Overcast
7:35 PM 32.0 °F 27.5 °F 28.4 °F 87% 30.11 in 5.0 mi NNW 4.6 mph - N/A   Overcast
7:55 PM 32.0 °F 27.5 °F 28.4 °F 87% 30.11 in 4.0 mi NNW 4.6 mph - N/A   Overcast
8:15 PM 32.0 °F 27.5 °F 28.4 °F 87% 30.12 in 3.0 mi NNW 4.6 mph - N/A Snow Light Snow
8:35 PM 32.0 °F 26.4 °F 28.4 °F 87% 30.12 in 4.0 mi NNW 5.8 mph - N/A Snow Light Snow
8:55 PM 32.0 °F 25.6 °F 28.4 °F 87% 30.12 in 3.0 mi NNW 6.9 mph - N/A   Overcast
9:15 PM 32.0 °F 26.4 °F 28.4 °F 87% 30.12 in 2.0 mi NNW 5.8 mph - N/A Snow Light Snow
9:35 PM 32.0 °F 27.5 °F 28.4 °F 87% 30.12 in 2.5 mi NNW 4.6 mph - 0.01 in   Overcast
9:55 PM 32.0 °F 26.4 °F 28.4 °F 87% 30.12 in 2.5 mi NNW 5.8 mph - 0.01 in   Overcast
10:15 PM 32.0 °F 24.8 °F 28.4 °F 87% 30.12 in 2.5 mi NNW 8.1 mph - N/A   Overcast
10:35 PM 30.2 °F 23.4 °F 28.4 °F 93% 30.12 in 2.5 mi NNW 6.9 mph - N/A   Overcast
10:55 PM 30.2 °F 23.4 °F 28.4 °F 93% 30.12 in 2.0 mi NNW 6.9 mph - N/A   Overcast
11:15 PM 30.2 °F 21.3 °F 28.4 °F 93% 30.11 in 3.0 mi NNW 10.4 mph 16.1 mph N/A   Overcast
11:35 PM 30.2 °F 21.9 °F 28.4 °F 93% 30.11 in 5.0 mi North 9.2 mph - N/A   Overcast
11:55 PM 30.2 °F 22.6 °F 28.4 °F 93% 30.12 in 4.0 mi NNW 8.1 mph - N/A   Overcast